Theta_e
301 303 303 303 302 294 297 298 295 295 297 299 294 300 294 293 290 293 296 300 301 306 310 313 316 317 317 320 321 323 323 325 327 328 329 330 330 331 331 333 334 335 336 337 338 338 338 339 340 338 337 338 339 341 341 342 343 344 346 348 346 348 347
302 302 302 304 303 299 297 295 295 299 300 296 294 290 287 285 286 286 297 297 297 298 297 309 313 314 317 319 320 321 322 324 325 327 328 329 329 330 332 333 334 336 336 337 335 334 335 336 336 336 338 339 340 341 341 340 341 341 343 345 345 346 348
301 303 304 301 302 303 298 298 299 299 294 295 292 290 287 286 286 285 291 298 299 298 300 305 309 313 314 317 319 319 321 322 324 326 327 328 329 329 330 331 333 333 332 331 331 332 333 335 338 338 339 340 340 339 340 339 339 339 341 342 344 346 345
302 301 298 294 298 303 301 301 300 301 295 289 292 292 288 288 286 287 288 294 296 302 303 307 310 313 315 316 317 319 321 323 324 325 326 326 326 327 329 330 331 331 329 330 330 331 333 335 337 339 340 340 339 339 343 339 340 340 340 341 344 343 342
300 297 297 295 297 297 299 298 296 300 296 297 295 294 293 292 286 285 287 289 293 301 305 310 312 314 317 318 319 320 321 323 324 325 325 325 326 326 327 328 329 328 328 329 331 332 334 335 339 339 339 339 339 339 340 342 338 338 338 339 339 339 339
294 296 297 298 298 301 299 297 295 295 293 295 292 290 294 292 290 287 288 288 293 301 310 311 313 315 318 319 320 320 321 323 323 324 324 325 325 325 326 327 328 327 329 330 332 335 335 336 337 336 337 338 337 337 337 338 337 335 335 335 335 336 337
297 301 303 303 300 298 297 299 298 294 293 292 287 286 290 293 296 298 292 290 292 303 312 313 314 316 319 320 320 321 321 322 322 322 323 324 325 325 325 326 327 328 329 331 333 335 334 335 336 336 336 337 336 336 336 335 334 334 334 335 335 336 336
298 300 302 304 302 302 302 301 297 297 296 293 293 289 291 291 294 293 292 291 289 300 313 316 315 314 318 319 320 321 321 321 321 321 322 323 324 325 325 326 328 329 329 331 332 333 333 333 333 333 334 335 334 333 333 333 333 334 335 335 337 337 337
291 294 298 300 302 301 297 299 300 299 298 297 295 295 293 293 293 292 290 288 289 300 314 314 314 317 317 318 318 321 320 320 322 322 322 323 324 324 324 326 327 328 329 329 331 332 332 332 332 332 332 332 332 332 332 333 333 335 335 337 336 337 337
287 288 289 291 296 298 298 299 298 301 298 296 298 298 293 290 297 294 291 288 293 300 310 312 314 315 316 318 319 321 320 321 322 322 322 322 323 324 324 326 327 327 329 330 330 331 331 331 331 332 331 332 332 332 332 333 334 335 336 337 337 337 337
291 292 292 297 302 297 297 299 297 300 298 299 298 293 292 291 291 294 293 294 297 305 310 310 312 313 315 318 320 320 321 323 323 323 323 323 324 324 325 326 327 328 328 329 330 330 330 330 331 331 331 331 331 332 332 334 335 336 336 337 336 336 336
298 296 298 300 301 297 297 297 298 298 299 299 298 296 294 295 296 290 296 298 303 304 307 309 312 313 315 318 320 321 320 322 323 323 323 330 324 325 326 326 326 327 328 328 329 329 330 330 331 331 332 332 332 332 333 334 335 336 337 337 336 336 336
298 300 299 301 298 297 297 296 296 298 297 298 299 297 298 297 294 293 295 300 302 304 308 312 314 315 317 319 321 322 323 323 323 323 324 324 323 324 325 326 326 326 327 327 328 328 329 330 331 331 332 332 332 333 334 335 336 336 337 336 335 335 335
298 298 297 298 298 298 298 298 297 297 297 298 298 298 298 299 298 297 297 302 305 306 308 310 314 319 320 321 322 322 322 323 324 323 323 324 324 324 325 326 326 326 327 327 327 327 327 328 329 330 331 331 332 332 333 334 335 336 336 335 335 334 334
298 298 301 298 297 298 299 298 298 298 295 300 300 300 303 306 301 304 301 303 304 308 310 311 317 319 321 323 323 322 322 323 324 323 324 325 325 325 326 326 326 327 326 326 326 326 326 327 328 329 330 331 332 332 333 334 334 336 336 334 333 332 332
297 298 298 298 297 297 297 298 300 299 300 301 301 300 304 299 299 303 303 301 302 305 312 317 317 319 320 321 321 321 322 323 325 324 324 325 325 326 326 326 325 323 324 323 322 323 324 325 327 328 330 331 331 331 332 332 333 334 332 331 330 330 331
292 297 298 298 294 296 297 298 298 302 301 302 304 305 311 308 304 302 299 299 304 307 315 314 315 318 319 319 321 321 321 322 324 324 324 325 326 325 322 322 324 322 322 322 323 323 324 325 326 327 329 330 330 331 331 331 331 330 329 329 329 329 331
292 297 298 298 293 289 288 297 300 303 303 303 304 304 305 307 306 303 304 305 307 312 314 314 314 316 317 320 320 320 321 321 320 321 321 320 319 318 318 320 321 321 322 323 324 325 325 326 328 329 332 330 330 330 331 331 329 329 329 329 330 331 332
294 296 294 295 289 287 298 305 308 305 305 307 306 307 307 308 307 308 308 309 311 312 313 314 315 313 314 315 317 318 319 320 320 320 320 319 319 319 319 318 319 321 322 323 323 324 325 328 330 327 326 327 327 327 328 328 329 329 330 330 330 330 331
293 292 290 287 288 295 302 305 311 314 311 310 304 305 307 309 309 307 307 309 310 311 311 311 313 313 313 314 316 315 317 319 319 318 318 317 318 317 318 319 321 322 323 323 323 323 330 329 327 327 327 327 327 328 328 329 329 329 329 329 330 331 332
292 291 288 290 296 299 306 306 307 307 306 305 303 298 302 309 309 308 307 308 309 310 311 311 312 313 312 311 313 315 317 317 316 317 317 317 318 319 321 321 320 322 321 322 322 328 327 325 324 325 326 327 329 329 330 331 330 330 330 330 331 332 334
293 291 289 292 292 291 296 302 308 312 312 311 307 304 302 307 310 309 309 309 309 310 310 311 312 312 309 307 311 312 316 318 317 320 319 320 322 321 321 322 323 324 324 324 327 330 326 329 329 328 328 329 330 330 330 330 330 330 331 331 332 333 333
293 291 287 287 289 291 298 305 308 313 312 311 307 301 297 303 308 310 309 309 309 310 310 311 311 308 305 304 307 311 315 319 318 319 319 319 321 321 323 322 324 327 329 332 335 330 327 328 329 329 329 329 329 330 331 331 331 330 330 331 332 332 333
294 290 289 290 290 297 305 305 308 311 311 309 304 295 292 304 309 311 310 310 310 310 311 310 309 308 303 304 308 312 315 318 318 319 322 322 321 326 327 324 324 330 334 330 328 327 327 328 329 330 330 330 331 332 332 332 331 331 331 332 333 334 334
296 295 289 291 295 304 307 310 308 311 311 307 296 291 298 307 310 312 312 311 312 311 312 311 309 309 309 309 313 316 319 319 320 320 323 323 322 326 329 330 339 329 328 329 328 328 329 329 330 330 331 329 330 331 331 330 330 331 332 333 333 333 334
292 289 290 291 293 301 307 311 311 312 309 298 294 301 305 311 311 312 313 312 312 313 313 311 309 311 313 320 318 318 318 318 318 320 325 327 328 328 333 337 337 329 328 328 328 328 329 329 331 331 330 329 330 330 329 329 330 332 333 333 333 333 333
294 290 291 291 289 302 311 310 308 311 304 301 302 308 313 314 312 313 313 313 313 314 313 313 313 316 316 318 317 318 318 318 318 322 325 324 325 325 326 326 331 335 330 329 329 328 329 329 329 330 329 328 329 330 328 330 331 332 333 333 333 333 332
292 289 290 291 295 304 311 311 305 308 309 309 309 312 311 314 313 314 314 314 315 315 315 314 314 316 316 317 317 317 318 318 319 321 323 323 323 323 323 325 327 334 330 329 328 328 329 329 329 329 328 328 329 329 329 331 332 333 333 332 332 332 332
296 294 295 299 302 306 309 309 307 308 311 312 313 314 314 314 313 314 315 316 316 316 316 315 315 315 316 316 316 316 316 318 320 321 322 323 323 323 323 324 328 328 327 327 327 327 328 327 328 328 328 327 328 327 329 331 331 331 331 331 331 331 331
303 304 304 307 309 312 311 314 313 314 317 315 315 315 314 314 315 316 316 315 316 315 316 316 316 315 315 315 316 317 317 319 320 323 324 322 322 322 323 324 325 328 327 325 325 324 326 327 327 329 328 327 326 327 329 330 331 330 330 330 330 331 331
300 298 305 308 311 310 315 313 316 317 317 315 314 315 316 316 316 316 316 317 317 317 316 317 316 315 315 315 315 317 317 318 320 320 321 320 321 322 322 323 328 326 325 323 324 325 325 326 326 327 327 327 328 328 329 329 329 329 329 330 330 330 329
299 303 306 308 308 309 310 311 313 315 316 317 317 316 317 317 317 318 318 318 317 317 316 316 316 316 315 314 314 317 318 319 319 319 319 319 321 321 321 322 326 323 322 321 323 324 324 325 326 326 326 326 327 327 327 328 328 327 328 327 327 327 327
302 304 305 304 309 312 310 311 312 313 315 315 316 317 317 318 318 318 318 320 318 317 317 316 316 315 315 315 317 320 319 318 319 319 318 319 319 320 321 322 325 321 322 323 323 323 324 325 325 324 324 325 326 326 326 326 326 325 325 325 324 323 323
301 303 305 308 303 302 307 310 313 313 315 316 316 317 317 318 317 318 318 318 320 318 317 316 317 317 317 318 319 320 319 319 319 319 318 319 319 320 321 322 321 321 323 323 323 323 324 324 324 323 323 323 324 325 325 324 324 323 323 322 321 321 322
298 304 306 309 307 305 307 310 313 315 316 317 317 316 317 317 318 319 319 318 318 319 319 320 320 319 319 318 319 320 320 319 319 319 320 320 319 320 322 321 320 321 321 324 323 323 323 323 323 323 322 322 322 322 322 323 322 322 321 321 321 321 322
306 307 307 309 308 309 308 311 315 315 317 318 317 317 318 319 319 319 319 319 319 318 319 321 321 321 320 320 320 320 320 320 320 320 319 318 319 321 323 320 320 320 321 321 321 321 322 322 322 321 321 321 320 321 321 321 321 321 321 321 320 321 322
311 311 308 309 311 312 314 314 316 316 318 319 318 317 318 318 318 319 319 319 321 321 320 320 321 322 321 320 319 319 319 320 323 324 323 322 324 322 321 320 320 320 320 320 320 321 321 322 322 321 319 319 320 320 320 321 321 321 321 321 321 321 322
Wind_Speed
5 7 4 2 3 4 3 2 2 3 2 9 7 3 2 3 5 4 1 6 5 8 4 3 5 5 4 3 4 6 6 7 8 8 8 8 8 6 6 6 7 6 4 4 6 5 4 4 3 4 4 4 5 6 6 6 5 5 5 5 5 5 4
5 3 4 1 1 4 5 0 6 2 2 5 5 3 1 3 3 2 1 2 7 4 3 3 5 4 1 1 4 5 6 7 9 9 8 9 9 8 7 6 6 6 6 5 4 3 4 5 5 5 5 5 7 7 8 8 6 6 5 5 5 6 5
8 3 4 2 1 1 3 3 3 2 2 1 3 4 0 0 1 2 2 2 4 5 6 3 3 2 2 3 3 5 7 7 9 8 8 6 4 4 5 6 5 5 5 5 4 4 4 4 5 7 7 7 6 6 6 7 7 7 7 6 5 4 4
3 2 3 5 2 2 3 4 3 1 3 3 2 3 3 4 2 2 3 2 3 6 6 6 5 6 5 5 4 8 10 10 9 8 8 8 8 7 6 6 6 6 5 5 6 7 7 8 8 7 7 6 7 6 6 5 4 4 4 5 4 4 5
1 2 0 6 8 6 1 2 1 0 2 2 4 2 1 2 5 4 2 2 5 7 6 5 6 8 9 11 11 8 7 8 8 8 9 8 8 8 7 7 6 6 6 5 5 5 6 5 6 6 6 7 7 6 6 6 7 6 6 6 5 6 5
2 6 5 3 7 9 9 8 7 8 6 3 2 4 1 3 4 3 3 4 7 8 3 6 6 8 8 6 5 7 6 7 8 7 7 8 8 7 7 6 7 6 5 5 5 4 4 6 6 7 6 4 5 6 6 6 5 5 5 5 6 6 5
4 6 2 2 4 3 4 6 3 5 3 6 5 2 4 2 1 3 2 1 3 2 2 3 4 5 9 8 7 7 6 7 8 7 5 5 6 7 7 7 7 7 7 8 8 9 8 8 7 6 5 5 6 7 6 5 5 7 7 6 5 5 5
8 6 2 3 3 4 5 4 3 2 2 4 6 2 5 6 1 1 1 0 4 2 2 2 4 4 4 6 9 9 7 6 6 6 6 7 5 4 4 5 6 7 7 6 6 6 7 6 6 6 6 6 6 5 6 5 6 8 6 6 5 3 4
3 5 2 4 2 4 3 2 1 1 3 5 3 6 1 3 5 4 6 3 3 2 4 4 1 1 4 6 4 5 7 4 4 5 4 4 5 5 6 7 7 6 6 7 8 8 7 7 6 5 6 7 6 7 5 6 7 7 6 4 4 4 4
4 2 2 2 0 2 1 1 1 1 4 8 3 3 1 1 1 3 2 3 8 7 3 3 1 2 3 2 4 4 5 6 7 6 6 6 6 7 7 6 6 9 9 7 6 6 6 6 6 6 6 6 7 7 7 6 6 6 5 3 4 4 5
8 8 5 3 4 2 4 0 1 1 3 2 4 5 4 3 3 4 6 4 1 3 3 3 4 4 8 7 5 7 6 4 3 3 5 7 7 8 10 10 7 4 5 8 8 7 7 6 6 6 6 7 7 7 7 6 5 5 5 4 4 5 5
11 8 4 5 4 5 3 5 3 1 1 3 5 3 3 4 8 3 5 5 1 8 5 6 7 7 5 5 6 5 5 6 8 7 4 4 3 3 3 4 6 9 8 7 6 7 7 7 6 6 6 7 7 5 6 6 4 4 5 4 5 5 6
1 3 1 2 2 2 5 4 4 4 4 4 4 4 4 8 3 7 5 6 5 6 8 11 12 13 14 14 14 11 7 6 5 6 6 7 7 6 6 7 6 6 7 6 7 8 8 6 6 8 8 7 5 5 5 6 5 6 5 4 6 6 6
3 3 3 2 4 1 3 1 2 2 6 7 6 3 4 10 4 5 3 8 11 9 4 4 3 1 1 1 2 3 6 8 8 8 8 8 8 8 9 8 7 6 6 5 5 4 5 6 7 7 7 7 6 6 7 6 6 7 4 5 6 6 6
2 3 5 3 2 6 2 1 3 1 1 1 0 1 1 2 2 0 2 3 8 6 4 3 1 4 4 4 3 3 4 7 8 9 9 8 8 7 5 4 4 3 4 4 5 5 6 7 7 7 8 8 7 7 7 7 7 7 3 5 5 5 6
0 2 1 1 3 6 4 2 3 4 3 2 2 2 4 4 5 2 4 1 7 6 0 2 3 5 5 6 6 4 5 6 6 8 8 7 7 6 5 3 2 4 4 5 5 7 9 9 9 8 8 8 6 7 7 7 6 3 2 3 4 5 6
3 3 0 1 2 3 2 1 1 2 1 2 1 1 1 1 4 5 3 7 5 3 2 5 1 5 4 4 6 6 3 3 5 7 7 6 4 2 1 3 3 5 7 8 8 7 6 7 7 9 7 5 7 6 5 5 3 3 3 4 4 5 5
4 2 0 1 3 2 3 2 2 4 3 4 3 2 1 1 2 2 4 4 3 1 3 7 7 8 4 4 1 0 3 5 4 3 2 1 1 2 3 5 6 6 5 5 6 6 6 6 5 5 3 4 5 3 4 3 4 4 4 4 4 5 5
4 0 2 3 1 6 3 3 2 5 2 4 4 3 1 2 2 2 1 1 1 1 0 0 2 3 2 3 4 1 3 4 3 3 2 3 4 5 6 5 5 5 5 4 5 6 6 4 3 3 3 3 4 4 3 4 3 4 4 4 5 5 5
3 3 3 2 3 3 3 4 1 2 2 2 3 2 0 1 1 3 3 4 2 0 3 3 3 6 5 5 4 3 1 3 6 6 5 6 6 5 5 4 4 4 4 5 5 5 3 3 4 2 3 3 2 4 3 4 4 4 4 5 6 5 7
4 4 5 3 3 2 0 1 1 4 3 3 3 2 2 1 2 4 4 3 2 3 3 4 4 3 3 6 4 3 2 2 3 5 5 5 5 3 2 3 4 2 3 4 4 2 3 3 2 3 3 2 2 4 5 5 4 5 5 6 7 7 7
4 6 2 1 1 2 7 7 2 2 2 1 2 3 2 2 1 4 7 6 5 5 4 4 3 3 7 2 0 2 2 1 3 1 2 1 1 2 3 2 2 2 1 1 1 1 2 3 3 3 4 4 4 6 6 6 6 7 7 8 7 7 8
3 4 5 3 4 7 8 7 3 0 1 4 3 3 3 3 2 4 6 7 5 9 8 4 2 4 3 5 5 5 2 0 1 2 1 1 1 2 1 2 1 1 0 0 0 1 3 6 7 6 6 6 6 6 6 7 6 7 8 8 8 8 9
1 6 4 3 4 1 0 6 2 2 4 3 3 1 5 3 4 5 6 8 9 7 5 5 5 8 5 5 6 5 5 1 2 1 0 1 1 2 2 2 3 1 0 2 5 6 5 6 6 6 5 5 6 6 7 7 7 8 9 9 9 8 8
2 5 0 2 3 4 3 3 4 2 3 3 3 5 3 4 6 6 6 8 8 8 7 5 5 6 4 4 4 4 3 3 2 1 1 0 2 2 1 0 0 1 3 2 3 5 6 6 6 5 4 5 6 7 7 7 9 9 9 8 8 8 8
5 3 5 5 3 6 6 1 6 4 4 1 3 6 2 7 7 5 7 7 4 6 9 7 4 4 4 0 3 4 2 2 1 1 2 2 1 1 2 3 3 3 4 5 5 7 6 6 5 5 4 5 6 7 7 9 10 8 8 8 8 8 8
3 4 3 2 2 2 6 7 3 0 2 5 4 1 1 2 5 8 6 5 5 7 4 3 4 4 3 3 3 3 2 2 3 4 4 3 3 2 2 2 3 2 4 5 6 7 6 6 5 5 5 6 7 7 8 10 9 8 8 8 8 8 8
6 3 3 3 5 6 7 8 6 5 5 4 7 6 3 0 3 5 5 4 5 7 6 7 4 4 5 2 2 3 1 1 1 2 2 1 2 3 5 5 5 3 4 5 6 6 6 6 6 5 5 7 7 8 10 9 8 8 8 8 8 8 9
3 3 5 3 2 3 4 2 1 3 3 3 7 6 7 6 3 3 5 7 4 5 5 6 6 4 3 4 6 6 6 5 5 4 4 3 2 2 4 6 5 4 5 6 7 7 7 7 6 6 5 6 8 9 9 7 8 8 8 8 8 8 8
2 2 3 2 2 1 2 4 2 1 1 1 4 7 5 4 5 9 7 5 7 5 6 9 2 5 5 5 5 2 4 4 4 2 2 2 3 4 4 5 5 4 5 5 6 7 8 7 6 6 6 6 9 9 8 7 7 8 9 9 9 9 9
4 2 0 0 0 2 1 2 0 0 2 3 4 5 5 6 5 5 4 9 9 9 7 9 8 5 5 5 3 3 4 3 3 2 2 3 4 4 5 5 4 5 5 6 7 7 8 7 6 6 7 7 7 7 7 7 7 8 8 8 10 10 10
2 0 0 2 4 5 4 2 1 1 1 1 2 2 2 4 4 5 6 7 7 6 6 5 7 6 4 6 5 4 4 3 2 2 2 3 4 4 4 5 4 4 5 6 7 7 7 7 6 6 7 7 7 8 7 7 7 8 8 9 10 10 11
1 2 3 3 2 1 1 2 4 3 4 5 3 4 6 7 8 6 4 1 7 7 6 5 6 6 3 4 6 6 4 2 1 1 3 3 3 4 5 5 4 5 5 6 7 8 8 7 7 7 8 8 7 8 8 8 8 8 9 11 11 12 11
1 4 4 3 3 1 5 6 5 5 5 5 6 5 6 7 8 7 8 4 4 3 4 6 6 7 5 4 5 5 4 3 2 1 2 3 4 4 4 4 4 5 5 6 7 8 8 6 7 8 8 8 8 8 8 8 8 9 10 10 12 11 9
3 7 7 7 4 3 6 5 3 4 5 7 9 8 8 5 7 9 10 7 4 4 3 2 6 7 7 5 4 4 4 2 1 2 2 3 3 4 5 5 6 6 7 7 7 8 8 7 6 7 9 8 9 9 9 8 9 9 10 9 11 11 10
2 5 5 7 4 4 2 5 5 6 6 8 9 7 7 9 9 6 7 8 10 4 4 4 3 7 6 6 5 5 2 1 0 2 2 2 2 4 3 4 5 7 8 8 8 9 8 8 8 8 9 9 9 10 9 9 9 10 9 9 10 11 10
1 2 5 8 6 1 1 3 4 5 4 5 9 8 8 8 5 6 9 5 5 11 8 6 3 4 7 5 4 5 3 0 1 0 1 2 4 4 4 5 6 7 7 7 7 7 8 8 9 9 9 10 10 10 10 10 10 9 10 11 11 11 11
Wind_Direction
198 223 133 241 148 217 244 112 198 213 151 101 82 71 37 103 61 205 190 316 305 296 311 355 353 38 19 96 136 141 148 152 153 174 184 189 195 194 191 195 198 207 209 213 213 215 216 218 219 214 209 191 164 142 137 132 130 125 130 139 147 153 158
277 222 162 144 54 153 86 136 238 152 129 121 127 179 350 66 172 244 74 232 300 15 267 330 3 41 57 78 151 160 154 154 168 183 186 189 195 198 195 199 196 197 201 205 212 215 206 201 183 161 153 147 145 142 143 143 151 154 178 167 170 175 172
268 340 135 22 336 101 149 202 192 114 261 248 326 91 344 119 267 279 315 273 253 183 254 328 282 192 222 196 181 144 162 177 185 186 193 194 187 175 187 198 192 196 194 195 188 187 168 161 155 154 147 142 141 150 160 158 170 180 180 187 188 187 178
326 27 83 191 220 30 41 83 88 45 106 156 132 204 174 122 222 67 289 35 249 209 218 196 222 198 193 196 192 197 186 186 184 186 187 184 185 190 193 196 194 191 187 178 167 156 157 156 154 156 152 152 160 173 175 186 182 179 174 185 189 192 214
48 167 224 200 167 153 102 74 310 53 29 207 105 44 79 187 168 174 173 322 279 263 215 179 210 195 198 188 194 198 195 193 192 188 185 186 185 187 193 188 182 173 173 162 157 163 158 156 156 155 163 172 177 178 192 191 182 196 200 208 197 212 202
315 244 248 196 177 169 162 161 199 169 129 125 150 243 43 82 103 197 130 233 269 271 175 207 191 201 191 216 200 197 196 191 193 196 197 181 183 194 183 176 167 169 163 154 149 159 161 159 169 173 190 182 188 198 209 204 205 205 207 217 209 218 211
239 255 277 261 193 126 153 140 185 146 116 101 99 148 249 48 32 117 152 118 272 241 223 223 228 195 190 188 181 201 201 197 197 199 187 186 187 179 174 168 168 170 167 164 169 172 176 179 182 187 189 195 206 215 216 218 204 227 215 225 213 208 206
290 311 322 47 84 107 70 36 70 101 165 174 167 170 177 136 170 66 3 189 247 284 311 287 254 234 203 177 178 191 198 199 197 180 175 174 162 163 164 162 164 172 167 163 163 176 186 195 195 198 201 210 222 226 223 215 220 238 235 235 241 235 239
337 339 342 5 325 59 93 106 8 86 97 76 123 110 71 101 213 163 125 220 293 271 331 336 360 149 179 190 205 178 187 204 190 184 178 167 160 155 163 169 173 168 164 170 183 189 194 201 206 209 213 221 224 233 230 225 233 238 241 231 226 235 228
170 203 170 226 108 142 274 112 49 58 120 128 112 130 49 116 243 123 130 247 252 272 323 358 339 180 190 217 187 186 191 187 183 174 176 171 171 177 169 167 170 180 183 184 191 202 208 211 210 215 223 229 234 237 237 227 234 240 239 221 224 236 234
181 202 211 244 129 68 101 292 56 163 69 80 100 104 88 201 201 184 230 181 268 304 255 262 253 210 195 193 192 179 184 183 189 186 173 178 180 177 178 181 178 167 187 201 207 213 217 220 221 224 225 234 236 236 249 240 228 238 244 226 231 232 242
194 185 199 189 148 138 165 141 178 219 157 150 114 139 211 169 103 278 264 195 150 250 248 237 230 229 232 208 192 192 194 187 179 177 173 154 153 166 160 166 181 195 204 213 221 228 232 236 238 245 244 243 245 247 259 268 249 238 245 233 245 245 245
246 204 267 125 98 128 173 172 155 176 190 131 142 223 171 144 154 206 247 171 194 251 223 215 208 197 194 193 195 195 181 144 130 139 158 173 180 182 189 201 204 206 213 221 229 234 238 249 255 253 254 258 263 266 264 265 267 258 248 241 254 254 252
60 15 31 44 117 93 88 101 221 227 157 198 179 193 181 180 193 220 205 177 213 225 253 255 255 316 343 360 32 77 124 162 164 163 171 179 186 189 200 207 212 220 231 244 259 285 290 277 274 276 276 274 267 262 267 264 260 261 241 244 248 256 255
6 339 356 64 131 127 93 356 117 215 212 55 194 120 126 338 326 82 124 158 260 266 214 250 105 97 79 77 105 169 179 162 169 174 180 186 193 203 216 226 238 263 281 286 286 284 280 278 267 269 266 268 268 262 259 265 261 262 233 248 244 246 261
351 318 45 9 36 77 98 18 3 58 112 150 218 162 210 148 198 132 110 28 265 269 280 107 89 112 131 167 176 184 196 190 173 180 187 192 200 209 220 246 288 284 280 281 273 257 253 251 252 251 254 254 262 262 260 257 266 291 247 240 252 257 253
230 230 24 168 39 58 34 267 258 255 240 255 82 337 66 245 149 114 147 234 226 226 178 122 129 139 174 184 198 196 190 197 190 190 193 201 209 231 260 272 269 253 244 241 245 255 257 256 251 246 245 257 253 260 277 281 306 286 277 256 259 265 268
212 228 352 78 92 211 230 235 221 174 186 178 157 218 251 265 176 199 190 232 286 197 177 156 179 182 197 200 212 93 178 176 189 214 230 225 236 246 237 230 237 257 265 257 251 248 253 257 263 288 277 250 270 279 267 272 272 273 277 284 256 265 269
180 99 34 60 210 235 243 284 249 221 193 140 152 151 199 308 310 270 286 288 170 241 301 287 72 83 51 88 130 113 164 151 168 185 193 234 227 228 233 248 249 242 248 273 280 275 277 284 276 279 296 239 256 280 275 286 289 286 273 266 275 272 283
72 57 57 123 238 236 285 284 8 76 100 152 92 70 268 261 215 174 174 192 209 205 78 58 98 110 115 86 58 62 25 177 163 167 205 219 207 213 221 210 241 237 244 252 267 278 282 298 305 287 278 302 286 278 299 276 285 280 274 280 283 289 284
151 180 141 198 276 334 266 357 229 167 199 188 164 171 264 233 212 174 184 174 137 84 90 111 106 126 70 58 25 4 84 143 176 171 172 171 185 204 252 223 251 276 255 261 263 261 299 292 287 290 274 283 291 309 313 303 307 303 307 296 286 281 280
124 128 67 27 32 204 267 233 274 302 216 178 173 110 277 296 230 170 151 153 141 118 113 114 137 86 65 53 355 289 327 38 101 75 100 123 187 224 260 265 239 271 294 277 283 233 309 316 293 305 319 319 332 323 311 309 310 302 294 284 277 275 273
81 66 125 193 159 240 205 220 227 257 184 146 139 66 296 267 189 165 146 144 163 151 148 175 105 84 157 227 249 259 278 301 93 96 13 358 297 8 314 273 252 164 76 208 206 335 355 339 323 331 331 334 322 299 293 292 288 284 277 274 274 270 269
146 138 122 207 199 157 275 217 248 240 172 129 65 323 276 246 208 184 152 153 163 175 165 145 124 140 175 235 244 231 223 183 109 145 99 310 338 19 26 102 190 183 238 15 359 346 327 299 298 303 310 320 302 289 283 282 282 277 274 271 271 272 271
146 116 346 342 302 263 260 241 216 214 168 79 94 187 239 222 188 186 170 170 172 160 157 166 153 224 179 204 200 140 106 100 68 36 33 304 172 174 186 181 83 6 348 352 283 273 267 274 286 294 300 296 285 277 277 279 274 271 271 273 273 272 272
153 182 126 206 238 239 186 241 156 191 106 114 192 234 213 159 187 197 178 185 174 163 166 185 197 208 215 188 87 94 87 145 159 36 77 83 69 325 297 304 305 289 287 282 277 284 274 271 281 284 289 282 277 281 282 277 272 275 278 277 275 274 273
64 46 83 43 157 242 151 129 57 61 137 228 206 160 342 223 176 164 204 189 191 162 191 215 199 146 123 121 112 109 110 135 154 158 149 152 176 199 259 302 290 268 283 284 281 278 289 295 293 292 297 287 282 285 283 280 287 291 290 287 284 281 280
145 129 134 191 213 193 188 148 171 211 199 188 161 140 123 304 148 174 175 226 191 190 169 172 174 150 125 76 92 92 105 184 140 163 205 256 273 281 266 246 263 304 304 291 289 292 298 303 300 300 301 289 290 288 287 293 297 296 293 290 286 286 286
127 192 211 245 241 203 194 149 185 205 228 162 170 150 152 156 225 187 165 202 176 169 151 134 140 123 185 170 168 162 186 178 177 176 206 211 242 273 290 297 316 325 298 290 295 299 296 297 302 300 297 291 296 295 293 302 301 301 298 295 292 285 282
247 262 199 263 312 270 254 234 206 143 134 250 148 141 140 225 178 178 179 160 144 141 156 124 168 168 175 156 180 192 156 174 203 246 278 298 291 309 326 318 320 305 305 301 293 291 298 304 312 310 304 296 298 291 294 296 300 300 301 295 290 288 285
101 177 352 29 209 317 183 215 16 46 139 184 182 179 181 166 149 126 118 147 152 159 164 152 165 181 168 163 167 151 157 180 203 239 250 278 295 303 304 292 305 312 316 316 312 310 306 310 311 309 304 292 283 290 297 300 302 305 302 294 295 293 290
101 224 243 260 276 251 267 232 178 181 191 169 175 168 129 127 127 130 146 137 133 145 161 169 148 158 161 144 151 162 176 196 220 260 272 289 314 298 266 282 297 310 320 312 309 310 308 308 306 305 305 304 301 302 302 305 306 307 303 303 299 296 296
277 312 295 301 325 350 325 282 249 215 178 152 127 124 127 128 117 109 97 88 156 168 160 143 132 126 162 165 159 158 183 214 257 251 258 257 255 276 310 312 330 315 306 310 308 312 307 304 306 308 308 307 307 307 308 309 310 306 303 303 301 296 295
237 180 206 141 108 251 275 265 228 212 199 143 130 122 121 131 127 133 122 79 60 84 119 140 127 135 142 154 144 152 174 194 229 283 288 282 287 295 290 302 314 317 318 313 311 307 305 305 308 310 307 308 310 309 309 311 310 308 305 303 301 295 293
219 241 219 193 160 185 219 217 207 172 157 142 138 151 145 156 152 148 137 121 81 72 59 87 130 136 147 162 147 135 173 209 236 234 261 282 309 321 327 337 328 323 313 311 312 310 310 311 305 309 312 312 315 313 311 309 308 301 300 296 296 293 292
251 225 201 177 151 192 239 213 181 161 166 151 153 156 157 157 159 153 133 139 132 116 92 68 115 138 138 156 151 152 174 242 294 309 303 298 262 290 317 317 308 316 320 322 319 313 308 311 311 312 316 315 311 309 306 302 297 294 287 285 287 289 287
205 212 177 190 199 231 335 157 151 148 158 158 147 157 150 143 136 139 131 129 134 137 132 118 102 131 142 159 151 147 167 133 309 309 328 334 334 340 323 327 328 328 319 313 306 307 310 311 318 323 320 312 308 303 303 300 295 286 285 286 286 286 287